This is the latest recevied weather packets stored in our database for station/object OE5MMP-13. If no packets are shown the sender has not sent any weather packets the latest 10 day(s).
| Time | Temp. | Humidity | Pressure | Rain* | Wind** | Luminosity | Snow |
|---|---|---|---|---|---|---|---|
| 1788008605 | 22.78° C | 58% | 1017.9 hPa | 0 mm | - | 738 W/m² | - |
| 1788008005 | 22.78° C | 59% | 1017.9 hPa | 0 mm | - | 716 W/m² | - |
| 1788007405 | 22.22° C | 60% | 1017.9 hPa | 0 mm | - | 734 W/m² | - |
| 1788006805 | 22.22° C | 61% | 1018 hPa | 0 mm | - | 770 W/m² | - |
| 1788006205 | 21.67° C | 61% | 1018 hPa | 0 mm | - | 800 W/m² | - |
| 1788005604 | 21.67° C | 58% | 1018.1 hPa | 0 mm | - | 159 W/m² | - |
| 1788005005 | 22.22° C | 59% | 1018.1 hPa | 0 mm | - | 866 W/m² | - |
| 1788004404 | 21.67° C | 59% | 1018.2 hPa | 0 mm | - | 838 W/m² | - |
| 1788003805 | 21.67° C | 60% | 1018.2 hPa | 0 mm | - | 136 W/m² | - |
| 1788003204 | 21.67° C | 61% | 1018.3 hPa | 0 mm | - | 866 W/m² | - |
| 1788002604 | 21.11° C | 62% | 1018.4 hPa | 0 mm | - | 806 W/m² | - |
| 1788002004 | 21.11° C | 62% | 1018.5 hPa | 0 mm | - | 606 W/m² | - |
| 1788001404 | 21.11° C | 62% | 1018.5 hPa | 0 mm | - | 881 W/m² | - |
| 1788000804 | 20.56° C | 64% | 1018.5 hPa | 0 mm | - | 199 W/m² | - |
| 1788000205 | 21.11° C | 62% | 1018.7 hPa | 0 mm | - | 393 W/m² | - |
| 1787999604 | 21.11° C | 61% | 1018.6 hPa | 0 mm | - | 764 W/m² | - |
| 1787999004 | 20.56° C | 65% | 1018.7 hPa | 0 mm | - | 253 W/m² | - |
| 1787998404 | 20.56° C | 62% | 1018.7 hPa | 0 mm | - | 874 W/m² | - |
| 1787997804 | 20.56° C | 64% | 1018.6 hPa | 0 mm | - | 767 W/m² | - |
| 1787997204 | 20.56° C | 63% | 1018.7 hPa | 0 mm | - | 744 W/m² | - |
| 1787996604 | 20° C | 65% | 1018.9 hPa | 0 mm | - | 722 W/m² | - |
| 1787996004 | 20° C | 65% | 1019 hPa | 0 mm | - | 740 W/m² | - |
| 1787995417 | 20° C | 64% | 1019 hPa | 0 mm | - | 750 W/m² | - |
| 1787994804 | 19.44° C | 64% | 1019.1 hPa | 0 mm | - | 707 W/m² | - |
| 1787994204 | 20° C | 65% | 1019.2 hPa | 0 mm | - | 717 W/m² | - |
* Rain latest hour (hover to see other rain measurements)
** Current wind speed in m/s (hover to see current wind gust speed)